Regional Weather Roundup
Issued by NWS San Diego, CA

Home | Current Version | Previous Version | Text Only | Print | Product List | Glossary On
Versions: 1 2 3 4 5 6 7 8 9 10 11 12 13 14 15 16 17 18 19 20 21 22 23 24 25 26 27 28 29 30 31 32 33 34 35 36 37 38 39 40 41 42 43 44 45 46 47 48 49 50
000
ASUS46 KSGX 051311
RWRSGX

SAN DIEGO HOURLY WEATHER ROUNDUP
NATIONAL WEATHER SERVICE SAN DIEGO CA
600 AM PDT TUE MAY 05 2015

NOTE: "FAIR" INDICATES FEW OR NO CLOUDS BELOW 12,000 FEET WITH NO
SIGNIFICANT WEATHER AND/OR OBSTRUCTIONS TO VISIBILITY.

CAZ042-043-060-061-PZZ750-775-051400-

GREATER SAN DIEGO AREA

CITY           SKY/WX    TMP DP  RH WIND       PRES   REMARKS
LINDBERGH FLD  CLOUDY    62  48  60 W8        30.00S
POINT LOMA       N/A     58  48  69 S3          N/A
NATIONAL CITY    N/A     61  52  71 CALM      30.00R
CHULA VISTA      N/A     60  52  75 CALM      29.92S
IMPERIAL BEACH CLOUDY    61  50  67 SW5       30.00R
BROWN FIELD    CLOUDY    58  49  72 CALM      29.99S
MIRAMAR MCAS   MOCLDY    61  48  62 W5        29.99R
MONTGOMERY FLD CLOUDY    60  48  64 W3        29.99S

$$

NORTH SAN DIEGO COUNTY

CITY           SKY/WX    TMP DP  RH WIND       PRES   REMARKS
CAMP PENDLETON CLOUDY    60  51  72 CALM      29.99R
OCEANSIDE AP   CLOUDY    61  49  64 SW6       29.98S
OCEANSIDE HBR    N/A     61  54  78 SW9       30.01S
VISTA            N/A     58  52  78 W2        29.98R
CARLSBAD       CLOUDY    60  49  66 SW6       29.98S
DEL MAR          N/A     59  51  74 CALM      30.01S
LA JOLLA SCRIP   N/A    N/A N/A N/A CALM      29.97S
FALLBROOK        N/A     57  57  99 CALM      29.98R
ESCONDIDO        N/A     58  51  78 SW1       30.00S
SAN MARCOS       N/A     57  51  79 SW3       29.98R
POWAY            N/A     58  51  77 CALM      30.00S

$$

EAST SAN DIEGO COUNTY

CITY           SKY/WX    TMP DP  RH WIND       PRES   REMARKS
RAMONA         CLOUDY    54  48  80 W6        29.99R
SANTEE LAKES     N/A     59  51  75 CALM      29.99S
LA MESA          N/A     58  50  73 CALM      29.93S
JAMUL            N/A     56  50  81 CALM      29.98S
DESCANSO N       N/A     48  44  87 CALM      29.85S
MT. LAGUNA OBS   N/A     45  26  48 N2        29.59
CAMPO            N/A     50  45  83 SW8       29.94S

$$

ORANGE COUNTY AND THE LOS ANGELES BASIN

CITY           SKY/WX    TMP DP  RH WIND       PRES   REMARKS
JOHN WAYNE AP  CLOUDY    59  49  69 S5        29.99R
LAKE FOREST FR   N/A     55  48  78 CALM      29.89R
SANTA ANA        N/A     61  52  72 CALM      29.94S
HUNTINGTON BCH   N/A     58  53  81 CALM      30.00S
LOS ALAMITOS   CLOUDY    59  51  74 S1        29.98S
FULLERTON      CLOUDY    60  49  66 CALM      29.98S
LONG BEACH     CLOUDY    61  49  64 NE3       29.99R
L.A. AP        CLOUDY    59  50  72 CALM      29.99R
L.A. DOWNTOWN  CLOUDY    60  49  66 VRB3      29.98R

$$

THE INLAND EMPIRE

CITY           SKY/WX    TMP DP  RH WIND       PRES   REMARKS
CORONA         MOCLDY    56  49  77 CALM      29.99S
CHINO          CLOUDY    57  49  74 W6        30.00S
ONTARIO        CLOUDY    56  48  74 W5        29.98S
RIVERSIDE AP   CLOUDY    55  49  80 W3        29.99S
RIV CYN CREST    N/A     55  55 100 W3          N/A
MORENO VALLEY    N/A     55  53  95 CALM      29.95S
MARCH ARB      CLOUDY    54  49  85 W5        29.98R
HORSETHIEF CYN   N/A     53  47  79 W1        29.95S
PERRIS           N/A     55  51  87 NW5         N/A
MENIFEE          N/A     56  53  87 S1        30.04S
HEMET EAST       N/A     54  47  77 CALM      29.95S
FRENCH VALLEY  CLOUDY    54  50  87 SW5       29.99R
TEMECULA         N/A     56  53  91 SW2       29.95S

$$

SAN BERNARDINO AND RIVERSIDE COUNTY MOUNTAINS

CITY           SKY/WX    TMP DP  RH WIND       PRES   REMARKS
BIG BEAR AP    CLEAR     30  23  74 CALM      30.03S
PINE COVE        N/A     44  26  49 N7        29.87R

$$

SOUTHERN DESERT INCLUDING THE COACHELLA VALLEY

CITY           SKY/WX    TMP DP  RH WIND       PRES   REMARKS
PALM SPRINGS   CLEAR     65  46  50 VRB6      29.85F
THOUSAND PALMS   N/A     63  48  57 NW16      29.83F
PALM DESERT      N/A     62  49  62 CALM        N/A
THERMAL        CLEAR     64  48  56 NW10      29.82S
BLYTHE         PTCLDY    63  59  87 CALM      29.84R
IMPERIAL AP    CLEAR     60  53  77 W5        29.83S
EL CENTRO NAS  PTCLDY    65  44  46 SW3       29.85S
YUMA AZ        PTCLDY    65  54  67 S5        29.85R

$$

UPPER DESERT

CITY           SKY/WX    TMP DP  RH WIND       PRES   REMARKS
VICTORVILLE AP CLEAR     52  43  71 SE8       29.90S
HESPERIA         N/A     50  42  73 W7        29.97S
APPLE VALLEY     N/A     53  41  65 SW1       30.00S
PALMDALE       CLEAR     52  40  63 SW13      29.91R
LANCASTER      CLEAR     50  42  74 SW17      29.90S
EDWARDS AFB    PTCLDY    52  41  66 SW13      29.87R
DAGGETT        PTCLDY    59  37  44 W8        29.86S
29 PALMS N     PTCLDY    59  28  30 NW6       29.92S
NEEDLES        PTCLDY    66  51  58 CALM      29.84S

$$

REGIONAL REPORTS

CITY           SKY/WX    TMP DP  RH WIND       PRES   REMARKS
SANTA BARBARA  CLOUDY    57  50  77 E7        29.97F
SANDBERG       FOG       43  41  93 SW8       29.97F VSB<1/4
LAS VEGAS NV   MOCLDY    65  38  36 S10       29.79R
PHOENIX AZ     CLOUDY    68  53  58 S6        29.86R
TIJUANA        CLOUDY    59  46  63 CALM      30.01S
ENSENADA NW      N/A     61  32  34 CALM      29.96F

$$

OFFSHORE ISLANDS

CITY           SKY/WX    TMP DP  RH WIND       PRES   REMARKS
CATALINA ARPT  CLOUDY    51  47  86 SW7       29.99S
SAN NICOLAS IS LGT RAIN  57  50  77 W10       29.98S

$$

MARINE AND OFFSHORE BUOY REPORTS

STATION/POSITION SKY/WX   TEMP    WIND        PRES    SWELL
                          AIR SEA DIR/SP/G            HT/PER/DIR
                          (F)     (DEG/KT/KT) (MB)    (FT/S/D)
TANNER BANKS               59 61  310/ 10/ 12 1015.6S   7/210/17
S CLEMENTE BASIN           60 64  260/  8/ 10 1015.4S   7/190/17
SAN NICOLAS IS.               60                N/A     7/180/18
SO. S. ROSA ISLA           56 60  330/ 14/ 17 1014.8F   5/17
W. S. BARBARA CH           54 55  330/ 14/ 16 1015.0S   5/170/15
S. MONICA BASIN            57 58  240/  6/  8 1015.3F   3/170/17
S PEDRO CHANNEL               60                N/A     3/180/18
DANA POINT                    59                N/A     5/190/18
OCEANSIDE OFFSHR              63                N/A     3/190/18
TORREY PINES OTR              63                N/A     3/200/18
LA JOLLA 1                 61 65  250/  5/  8 1015.3F
MISSION BAY BUOY              65                N/A     5/190/17
SAN DIEGO BAY                 68              1015.8S
POINT LOMA SOUTH              65                N/A     5/180/18

$$




USA.gov is the U.S. government's official web portal to all federal, state and local government web resources and services.